Location: Unspecified
(0.0000°N, 0.0000°E)
Time: 11:24:17
(UTC+00:00)

deb r/b Ablestar - Pass Details

Date: 18 April 2026
Orbit: 834 x 1371 km, 65.9° (Epoch: 10 May)

Event Time Altitude Azimuth Distance (km) Brightness Sun altitude
Exits shadow 03:35:58 19° 162° (SSE) 2,418 ? -35.1°
Maximum altitude 03:40:24 35° 109° (ESE) 1,817 ? -34.1°
Drops below altitude 10° 03:47:26 10° 46° (NE) 3,283 ? -32.3°
Sets 03:50:38 0° 38° (NE) 4,308 ? -31.6°
